Overview Statistics Trail Chart Weather Telemetry Raw packets
 

This is the latest recevied weather packets stored in our database for station/object YO8SHU-10. If no packets are shown the sender has not sent any weather packets the latest 10 day(s).

<< 16 17 18 19 20 >>
Time Temp. Humidity Pressure Rain* Wind** Luminosity Snow
1787828408 19.44° C 100% 1026.6 hPa - - - -
1787826607 18.89° C 100% 1026.7 hPa - - - -
1787824807 18.89° C 100% 1026.7 hPa - - - -
1787823007 20° C 100% 1026.8 hPa - - - -
1787821207 18.89° C 100% 1026.7 hPa - - - -
1787819406 19.44° C 100% 1026.7 hPa - - - -
1787817606 18.89° C 100% 1026.6 hPa - - - -
1787815806 18.89° C 100% 1026.4 hPa - - - -
1787814009 18.33° C 100% 1026.6 hPa - - - -
1787812206 18.89° C 100% 1026.2 hPa - - - -
1787810406 17.22° C 100% 1026.4 hPa - - - -
1787808606 17.22° C 100% 1026.2 hPa - - - -
1787806806 16.67° C 100% 1026.2 hPa - - - -
1787805006 17.22° C 100% 1026 hPa - - - -
1787803205 17.22° C 100% 1025.9 hPa - - - -
1787801411 16.67° C 100% 1025.7 hPa - - - -
1787799605 17.22° C 100% 1025.8 hPa - - - -
1787797805 17.22° C 100% 1025.5 hPa - - - -
1787796005 17.22° C 100% 1025.4 hPa - - - -
1787794205 17.22° C 100% 1025.4 hPa - - - -
1787792409 17.22° C 100% 1025.4 hPa - - - -
1787790605 17.22° C 100% 1025.4 hPa - - - -
1787788808 17.22° C 100% 1025.5 hPa - - - -
1787787004 17.22° C 100% 1025.5 hPa - - - -
1787785204 17.22° C 100% 1025.5 hPa - - - -

* Rain since midnight (hover to see other rain measurements)
** Current wind speed in m/s (hover to see current wind gust speed)